TimeEST,TemperatureF,Dew PointF,Humidity,Sea Level PressureIn,VisibilityMPH,Wind Direction,Wind SpeedMPH,Gust SpeedMPH,PrecipitationIn,Events,Conditions,WindDirDegrees,DateUTC
12:53 AM,64.9,55.0,70,30.00,10.0,North,10.4,19.6,0.00,,Overcast,350,2013-03-02 05:53:00
1:53 AM,64.9,54.0,68,29.99,10.0,North,11.5,-,0.00,,Overcast,350,2013-03-02 06:53:00
2:53 AM,64.9,55.0,70,29.99,10.0,North,12.7,19.6,N/A,,Overcast,350,2013-03-02 07:53:00
3:30 AM,64.4,55.4,73,29.98,10.0,North,15.0,27.6,N/A,,Overcast,350,2013-03-02 08:30:00
3:39 AM,64.4,55.4,73,29.99,10.0,North,13.8,21.9,N/A,,Overcast,350,2013-03-02 08:39:00
3:49 AM,64.4,53.6,68,29.99,10.0,North,13.8,24.2,N/A,,Overcast,350,2013-03-02 08:49:00
3:53 AM,64.0,54.0,70,29.99,10.0,North,17.3,23.0,N/A,,Overcast,360,2013-03-02 08:53:00
4:53 AM,64.0,53.1,67,29.99,10.0,North,11.5,20.7,N/A,,Overcast,350,2013-03-02 09:53:00
5:53 AM,64.4,53.6,68,30.00,10.0,North,15.0,26.5,N/A,,Overcast,360,2013-03-02 10:53:00
6:53 AM,64.4,51.8,64,30.01,10.0,North,15.0,26.5,N/A,,Overcast,350,2013-03-02 11:53:00
7:53 AM,64.0,50.0,60,30.03,10.0,NNW,19.6,27.6,N/A,,Overcast,340,2013-03-02 12:53:00
8:53 AM,64.0,50.0,60,30.04,10.0,NNW,16.1,24.2,N/A,,Overcast,340,2013-03-02 13:53:00
9:53 AM,64.4,50.0,59,30.05,10.0,NNW,10.4,-,N/A,,Overcast,340,2013-03-02 14:53:00
10:53 AM,64.9,53.1,65,30.05,10.0,NNE,9.2,17.3,N/A,,Overcast,20,2013-03-02 15:53:00
11:53 AM,64.9,52.0,63,30.05,10.0,North,10.4,-,N/A,,Overcast,10,2013-03-02 16:53:00
12:53 PM,66.0,52.0,60,30.04,10.0,North,8.1,-,N/A,,Overcast,350,2013-03-02 17:53:00
1:53 PM,66.9,51.1,57,30.01,10.0,NNW,9.2,-,N/A,,Partly Cloudy,340,2013-03-02 18:53:00
2:53 PM,66.9,52.0,59,30.00,10.0,NW,15.0,-,N/A,,Scattered Clouds,320,2013-03-02 19:53:00
3:53 PM,66.0,51.1,59,30.00,10.0,NNW,18.4,29.9,N/A,,Mostly Cloudy,330,2013-03-02 20:53:00
4:53 PM,64.9,50.0,58,30.01,10.0,NNW,17.3,26.5,N/A,,Mostly Cloudy,340,2013-03-02 21:53:00
5:53 PM,63.0,48.9,60,30.02,10.0,North,11.5,19.6,N/A,,Overcast,360,2013-03-02 22:53:00
6:53 PM,63.0,48.0,58,30.03,10.0,North,12.7,-,N/A,,Partly Cloudy,350,2013-03-02 23:53:00
7:53 PM,62.6,48.2,59,30.05,10.0,North,8.1,-,N/A,,Scattered Clouds,10,2013-03-03 00:53:00
8:53 PM,60.1,50.0,69,30.08,10.0,NNW,11.5,-,0.00,,Overcast,330,2013-03-03 01:53:00
9:53 PM,61.0,50.0,67,30.07,10.0,NNW,5.8,-,N/A,,Overcast,330,2013-03-03 02:53:00
10:53 PM,60.1,51.1,72,30.06,10.0,Calm,Calm,-,N/A,,Clear,0,2013-03-03 03:53:00
11:53 PM,57.9,52.0,81,30.06,10.0,Calm,Calm,-,N/A,,Scattered Clouds,0,2013-03-03 04:53:00